www.pogodaiklimat.ru

Погода и климат >> Архив погоды >> Парагвай >> Энкарнасьон


ПОГОДА в Энкарнасьоне

  • Прогноз погоды в Энкарнасьоне
  • Монитор погоды в Энкарнасьоне

АРХИВ ПОГОДЫ в Энкарнасьоне

Время (UTC), дата Ветер
(напр.,м/с)
 
Видим.   Явления Облачность Т
(С)
Тd
(С)
f
(%)
Тe
(С)
Тes
(С)
Комфортность P
(гПа)
Po
(гПа)
Тmin
(С)
Tmax
(С)
R
(мм)
R24
(мм)
S
(см)
12 12.01 СЗ 3 20 км 10/8 300 м
[Sc Ac As]
+23.2 +21.4 90 +31 +32 очень
душно
1014.5 991.5 +22.0 6
15 12.01 СВ 3 20 км 9/6 600 м
[Sc Ac As]
+27.0 +21.2 71 +34 +38 очень
душно
1014.7 991.7
18 12.01 СВ 3 20 км 6/4 1000 м
[Cu med, cong Ac trans]
+30.8 +22.5 61 +40 +47 очень
душно
1014.1 991.3
21 12.01 СВ 3 20 км 6/5 1000 м
[Cu med, cong Ac trans]
+30.0 +22.5 64 +39 +40 очень
душно
1011.5 988.7
00 13.01 СВ 3 20 км зарница 9/6 300 м
[Cb cap Ac As]
+26.0 +20.1 70 +32 +32 очень
душно
1012.5 989.7 +31.0
03 13.01 ЮВ 3 20 км 9/8 300 м
[Sc Ac As]
+23.0 +19.9 83 +30 +30 очень
душно
1013.8 990.8
06 13.01 0 н/о
09 13.01 штиль 0 20 км 8/5 450 м
[Sc Ac As]
+23.6 +21.2 86 +30 +30 очень
душно
1012.1 989.1
12 13.01 СВ 3 20 км 5/0
[Ac trans]
+26.2 +21.5 75 +33 +39 очень
душно
1013.9 990.9 +23.0
15 13.01 С 4 20 км 6/3 1000 м
[Cu med, cong Ac trans]
+30.0 +22.9 66 +40 +47 очень
душно
1013.9 990.9
18 13.01 С 3 20 км 6/6 1000 м
[Cu med, cong Ac trans]
+33.0 +23.0 56 +43 +49 опасность
перегрева
1012.3 989.7
21 13.01 С 3 20 км 8/5 1000 м
[Cu med, cong Ac trans]
+29.0 +23.2 71 +39 +40 очень
душно
1010.9 988.3
00 14.01 СВ 3 20 км гроза без осадков 10/8 450 м
[Cb cap Ac As]
+22.0 +18.8 82 +27 +27 душно 1013.6 990.6 +33.0 40
03 14.01 СВ 3 20 км зарница {гроза} 10/8 450 м
[Cb cap Ac As]
+22.4 +18.6 79 +28 +28 душно 1013.7 990.7
06 14.01 СВ 3 20 км зарница {гроза} 9/8 450 м
[Cb cap Ac As]
+22.4 +18.6 79 +28 +28 душно 1014.0 991.0
09 14.01 СВ 7 20 км 10/4 750 м
[Sc Ac As]
+23.0 +21.5 91 +31 +31 очень
душно
1011.4 988.4
12 14.01 СВ 3 20 км 6/0 2000 м
[Ac As]
+23.4 +21.3 88 +31 +36 очень
душно
1012.9 989.7 +21.6 93
15 14.01 СВ 4 20 км 8/0 2000 м
[Ac As]
+30.0 +22.5 64 +39 +45 очень
душно
1014.2 991.4
18 14.01 С 3 20 км гроза без осадков 10/5 800 м
[Cb cap Ac As]
+32.0 +23.5 61 +43 +45 опасность
перегрева
1012.3 989.7
21 14.01 З 3 20 км {гроза} 9/5 900 м
[Cu Sc Ac As]
+31.4 +22.6 60 +41 +42 опасность
перегрева
987.4
00 15.01 С 2 20 км 8/3 800 м
[Sc diur, vesp Ac As Cs]
+28.6 +20.4 61 +35 +35 очень
душно
1010.7 987.9 +33.6
09 15.01 С 5 20 км 4/0 2000 м
[Ac As]
+24.0 +20.6 81 +30 +30 очень
душно
1010.8 987.7
12 15.01 С 7 20 км 8/0 2000 м
[Ac As]
+25.6 +21.5 78 +33 +34 очень
душно
1011.7 988.7 +23.4
15 15.01 С 6 20 км 10/0 2000 м
[Ac As Cs]
+32.4 +19.9 48 +39 +43 очень
душно
1011.3 988.5
18 15.01 С 4 20 км 10/5 900 м
[Cu Sc Ac As Cs]
+33.2 +22.8 55 +43 +46 опасность
перегрева
1010.2 987.4
21 15.01 С 3 20 км 10/3 900 м
[Cu Sc Ac As Cs]
+33.0 +22.9 55 +43 +43 опасность
перегрева
1008.3 985.5
00 16.01 СВ 2 20 км зарница 4/1 1200 м
[Cb cap Ac As]
+28.6 +23.2 73 +39 +39 очень
душно
1009.0 988.2 +34.6
03 16.01 СВ 3 20 км зарница 8/1 1200 м
[Cb cap Cs]
+26.0 +21.5 76 +33 +33 очень
душно
1010.0 987.0
06 16.01 СВ 2 20 км ясно +25.0 +21.8 82 +32 +32 очень
душно
1011.0 986.3
09 16.01 штиль 0 20 км 5/0 2000 м
[Ac und]
+25.0 +22.0 83 +32 +32 очень
душно
1009.6 986.6
12 16.01 З 2 20 км 8/0 2000 м
[Ac As]
+27.4 +22.4 74 +36 +40 очень
душно
1012.6 989.7 +25.0
15 16.01 С 4 20 км 10/4 800 м
[Sc Ac As Cs]
+32.0 +21.7 55 +41 +45 опасность
перегрева
1012.2 989.7
18 16.01 СЗ 4 20 км 10/4 900 м
[Cu Sc Cs]
+33.4 +24.3 59 +46 +51 опасность
перегрева
1010.8 988.4
21 16.01 СЗ 4 20 км гроза без осадков 8/6 900 м
[Cb cap Ac As]
+29.0 +21.6 64 +37 +37 очень
душно
1009.3 986.6 2
00 17.01 С 3 20 км зарница {гроза} 9/5 600 м
[Cb cap Ac As]
+26.0 +21.8 78 +33 +33 очень
душно
1009.0 986.3 +33.6 2
03 17.01 С 3 20 км зарница 10/5 600 м
[Cb cap Ac As]
+24.0 +17.8 68 +28 +28 душно 1010.5 987.3
09 17.01 СВ 2 20 км ясно +25.0 +20.4 76 +31 +31 очень
душно
1011.6 988.6
12 17.01 СВ 4 20 км 8/3 1000 м
[Cu Sc Ac As]
+27.4 +23.4 79 +37 +39 очень
душно
1012.1 989.1 +24.0 6
15 17.01 СВ 4 20 км 8/3 900 м
[Cu Sc Ac As]
+32.0 +23.3 60 +43 +47 опасность
перегрева
1012.5 989.7
18 17.01 СВ 4 20 км 10/4 900 м
[Cu Sc Ac As Cs]
+34.4 +23.8 54 +46 +49 опасность
перегрева
1009.7 987.4
21 17.01 СВ 3 20 км 10/5 900 м
[Cu Sc Ac As Cs]
+34.4 +23.8 54 +46 +46 опасность
перегрева
1008.3 986.0
00 18.01 ЮВ 4 20 км гроза без осадков 9/6 750 м
[Cb cap Ac As]
+28.0 +21.6 68 +36 +36 очень
душно
1009.9 987.1 +35.4
03 18.01 Ю 3 20 км гроза без осадков 10/5 600 м
[Cb cap Ac As]
+25.0 +22.0 83 +32 +32 очень
душно
1011.1 988.1
12 18.01 З 5 8000 м дождь {гроза} 10/10 600 м
[Cb cap Ac As]
+25.0 +23.5 91 +34 +34 очень
душно
1012.8 989.8 +24.4
15 18.01 СЗ 3 15 км дождь {гроза} 10/10 600 м
[Cb cap As op]
+25.2 +22.1 83 +33 +33 очень
душно
1013.2 990.0 7
18 18.01 ЮЗ 2 8000 м сильн. дождь {гроза, морось} 10/10 450 м
[Cb cap As op]
+23.2 +22.9 98 +32 +32 очень
душно
1012.8 989.6 16
21 18.01 З 3 20 км {дождь, морось} 10/10 600 м
[St]
+24.4 +22.5 89 +32 +32 очень
душно
1010.7 987.6 4
00 19.01 ЮЗ 3 15 км слаб. морось 10/10 450 м
[Sc]
+22.2 +21.7 97 +29 +29 очень
душно
1012.8 989.5 +28.4 1
03 19.01 Ю 2 15 км слаб. морось 10/10 450 м
[Sc]
+21.4 +20.8 96 +27 +27 душно 1014.5 991.0 0.9
09 19.01 З 3 15 км слаб. морось 10/10 300 м
[Sc]
+18.2 +17.6 96 +19 +19 1015.5 991.8 0.3

 

Местоположение метеостанции Энкарнасьон (Парагвай): широта -27.31 долгота -55.83 высота над уровнем моря 91 м.

В архиве по умолчанию представлена погода в Энкарнасьоне за последнюю неделю. Архивные данные за месяц целиком и за предыдущие месяцы, начиная с января 2011 года, Вы можете получить, выбрав интересующий диапазон дат из раскрывающегося списка и нажав кнопку "Ввод!".


*Определитесь, кто Вы:
робот инопланетянин человек

Внимание! Время в таблицах - всемирное. Для получения местного времени необходимо прибавить поправку, которая равна -4 ч.

Смотрите также архив погоды в соседних городах и на ближайших метеорологических станциях:

Погода в Посадасе (Аргентина) (14 км)
Погода в Капитан Меса (Парагвай) (75 км)
Погода в Каасапе (Парагвай) (136 км)
Погода в Сан-Луис-Гонзаге (Риу-Гранди-ду-Сул, Бразилия) (146 км)
Погода в Санта-Розе (Риу-Гранди-ду-Сул, Бразилия) (147 км)
Погода в Сан Хуан Батистута (Парагвай) (149 км)
Погода в Сан-Луис Гонзага (Риу-Гранди-ду-Сул, Бразилия) (150 км)
Погода в Сан-Борхе (Риу-Гранди-ду-Сул, Бразилия) (150 км)
Погода в Куйкуйо (Парагвай) (167 км)
Погода в Вильяррике (Парагвай) (183 км)

Пояснения к столбцам:

Ветер - указаны скорость ветра в м/с - средняя за 10 мин, порывы в срок и между сроками (в фигурных скобках) и направление, откуда дует ветер: С - северный, СВ - северо-восточный, В - восточный, ЮВ - юго-восточный, Ю - южный, ЮЗ - юго-западный, З - западный, СЗ - северо-западный.
Видимость - горизонтальная дальность видимости в метрах или километрах. При видимости от 1 до 10 км при отсутствии осадков обычно наблюдается дымка, при ухудшении видимости до 1 км и менее - туман. В сухую погоду видимость может ухудшаться дымом, пылью или мглою.
Явления - указаны атмосферные явления, наблюдавшиеся в срок или в последний час перед сроком; фигурными скобками обозначены явления, наблюдавшиеся между сроками (за 1-3 часа до срока); квадратными скобками обозначены град или гололедные отложения с указанием их диаметра в мм.
Облачность - указаны через наклонную черту общая и нижняя облачность в баллах и высота нижней границы облаков в метрах; квадратными скобками обозначены формы облаков: Ci - перистые, Cs - перисто-слоистые, Cc - перисто-кучевые, Ac - высококучевые, As - высокослоистые, Sc - слоисто-кучевые, Ns - слоисто-дождевые, Cu - кучевые, Cb - кучево-дождевые. Подробнее классификацию облаков см. в Атласе облаков (PDF).
T - Температура воздуха - температура, измеренная на высоте 2 м над землей.
Td - Температура точки росы - температура, при понижении до которой содержащийся в воздухе водяной пар достигнет насыщения.
f - Относительная влажность воздуха - влажноcть воздуха, измеренная на высоте 2 м над землей.
Te - Эффективная температура - температура, которую ощущает одетый по сезону человек в тени. Характеристика душности погоды. При расчете учитывается влияние влажности воздуха и скорости ветра на теплоощущения человека.
Tes - Эффективная температура на солнце - температура, которую ощущает человек, с поправкой на солнечный нагрев. Характеристика знойности погоды. Зависит от высоты солнца над горизонтом, облачности и скорости ветра. Ночью, в пасмурную погоду, а также при ветре 12 м/с и более поправка равна нулю.
P - Атмосферное давление - приведенное к уровню моря атмосферное давление.
Po - Атмосферное давление - измеренное на уровне метеостанции атмосферное давление.
Tmin - Минимальная температура - минимум температуры воздуха на высоте 2 м над землей.
Tmax - Максимальная температура - максимум температуры воздуха на высоте 2 м над землей.
R - Количество осадков - Количество выпавших осадков за период времени, мм. При наведении курсора мыши на число - период времени, за который выпало указанное количество осадков.
R24 - Количество осадков - Количество выпавших осадков за 24 часа, мм.
S - Снежный покров - Высота снежного покрова, см. При наведении курсора мыши на число - состояние снежного покрова и степень покрытия местности в баллах.